This is the latest recevied weather packets stored in our database for station/object N5ATR. If no packets are shown the sender has not sent any weather packets the latest 10 day(s).
| Time | Temp. | Humidity | Pressure | Rain* | Wind** | Luminosity | Snow |
|---|---|---|---|---|---|---|---|
| 1777252287 | 15.56° C | 22% | 1006.6 hPa | 0 mm | - | 28 W/m² | - |
| 1777251985 | 15.56° C | 22% | 1006.3 hPa | 0 mm | - | 33 W/m² | - |
| 1777251681 | 16.11° C | 22% | 1006.1 hPa | 0 mm | - | 37 W/m² | - |
| 1777251378 | 16.11° C | 22% | 1005.8 hPa | 0 mm | - | 42 W/m² | - |
| 1777251074 | 16.11° C | 22% | 1006 hPa | 0 mm | - | 46 W/m² | - |
| 1777250770 | 16.67° C | 22% | 1006 hPa | 0 mm | - | 52 W/m² | - |
| 1777250467 | 16.67° C | 22% | 1005.8 hPa | 0 mm | - | 58 W/m² | - |
| 1777250163 | 17.22° C | 21% | 1005.6 hPa | 0 mm | - | 64 W/m² | - |
| 1777249859 | 17.22° C | 21% | 1005.6 hPa | 0 mm | - | 73 W/m² | - |
| 1777249555 | 17.22° C | 21% | 1005.3 hPa | 0 mm | - | 83 W/m² | - |
| 1777249252 | 17.78° C | 21% | 1005.5 hPa | 0 mm | - | 98 W/m² | - |
| 1777248949 | 17.78° C | 21% | 1005.3 hPa | 0 mm | - | 110 W/m² | - |
| 1777248645 | 17.78° C | 21% | 1005.5 hPa | 0 mm | - | 130 W/m² | - |
| 1777248342 | 18.33° C | 20% | 1005.5 hPa | 0 mm | - | 152 W/m² | - |
| 1777248039 | 18.33° C | 20% | 1005.3 hPa | 0 mm | - | 166 W/m² | - |
| 1777247737 | 18.33° C | 20% | 1005.3 hPa | 0 mm | - | 182 W/m² | - |
| 1777247435 | 18.33° C | 20% | 1005.2 hPa | 0 mm | - | 196 W/m² | - |
| 1777247132 | 18.89° C | 20% | 1005.2 hPa | 0 mm | - | 212 W/m² | - |
| 1777246829 | 18.89° C | 20% | 1005 hPa | 0 mm | - | 227 W/m² | - |
| 1777246525 | 18.89° C | 20% | 1004.9 hPa | 0 mm | - | 247 W/m² | - |
| 1777246222 | 18.89° C | 20% | 1005.2 hPa | 0 mm | - | 265 W/m² | - |
| 1777245920 | 18.33° C | 20% | 1004.7 hPa | 0 mm | - | 282 W/m² | - |
| 1777245618 | 18.89° C | 20% | 1005 hPa | 0 mm | - | 294 W/m² | - |
| 1777245315 | 18.89° C | 20% | 1004.9 hPa | 0 mm | - | 311 W/m² | - |
| 1777245009 | 18.89° C | 20% | 1004.8 hPa | 0 mm | - | 337 W/m² | - |
* Rain latest hour (hover to see other rain measurements)
** Current wind speed in m/s (hover to see current wind gust speed)